Skip Page Navigation
NASA JPL Caltech
NASA Logo - Jet Propulsion Laboratory + View the NASA Portal
+ Near-Earth Object (NEO) Program
Search JPL
JPL Home Earth Solar System Stars & Galaxies Technology
JPL Solar System Dynamics
BODIES ORBITS EPHEMERIDES TOOLS PHYSICAL DATA DISCOVERY FAQ SITE MAP
JPL Small-Body Database Browser
Search: [ help ]  
9504 Lionel (2224 T-2)
Classification: Main-belt Asteroid          SPK-ID: 2009504
Ephemeris | Orbit Diagram | Orbital Elements | Physical Parameters | Discovery Circumstances ]

[ show orbit diagram ]
Orbital Elements at Epoch 2457000.5 (2014-Dec-09.0) TDB
Reference: JPL 12 (heliocentric ecliptic J2000)
 Element Value Uncertainty (1-sigma)   Units 
e .07691519152796758 6.0011e-08  
a 2.945909214542672 2.515e-08 AU
q 2.719324043082117 1.7823e-07 AU
i 2.392922111516362 6.4699e-06 deg
node 41.69485474184329 0.00016339 deg
peri 320.6870984343423 0.0001692 deg
M 56.51638787019807 4.4349e-05 deg
tp 2456710.565857007974
(2014-Feb-22.06585701)
0.00022757 JED
period 1846.83231555512
5.06
2.3651e-05
6.475e-08
d
yr
n .1949283629963943 2.4963e-09 deg/d
Q 3.172494386003226 2.7085e-08 AU
  Orbit Determination Parameters
   # obs. used (total)      971  
   data-arc span      15924 days (43.60 yr)  
   first obs. used      1971-03-24  
   last obs. used      2014-10-28  
   planetary ephem.      DE431  
   SB-pert. ephem.      SB431-BIG16  
   condition code      0  
   fit RMS      .52862  
   data source      ORB  
   producer      Otto Matic  
   solution date      2014-Nov-10 13:09:51  

Additional Information
 Earth MOID = 1.7172 AU 
 T_jup = 3.265 
[ show covariance matrix ]

Ephemeris | Orbit Diagram | Orbital Elements | Physical Parameters | Discovery Circumstances ]

Physical Parameter Table
Parameter Symbol Value Units Sigma Reference Notes
absolute magnitude H 13.6 mag n/a MPO270236  

9504 Lionel           Discovered 1973 Sept. 29 by C. J. van Houten and I. van Houten-Groeneveld on Palomar Schmidt plates taken by T. Gehrels.
Lionel was one of the knights of the Round Table.
NOTE: some special characters may not display properly (any characters within {} are an attempt to place the proper accent above a character)
Reference: 20001111/MPCPages.arcLast Updated: 2013-03-29

Alternate Designations
 2224 T-2 = 1978 RC2 
Ephemeris | Orbit Diagram | Orbital Elements | Physical Parameters | Discovery Circumstances ]
ABOUT SSD CREDITS/AWARDS PRIVACY/COPYRIGHT GLOSSARY LINKS
FirstGov 2014-Dec-18 05:39 UT
(server date/time)  
NASA Home Page
Site Manager:   Donald K. Yeomans
Webmaster  Alan B. Chamberlin